Tracking 28915 objects as of 29-May-2024
HD Live streaming from Space Station
objects crossing your sky now

SHIYAN 13 (SY-13)

Track SHIYAN 13 (SY-13) now!
10-day predictions


NORAD ID: 51102
Int'l Code: 2022-004A
Perigee: 398.2 km
Apogee: 1,311.0 km
Inclination: 98.5 °
Period: 101.9 minutes
Semi major axis: 7225 km
RCS: Unknown
Launch date: January 17, 2022
Source: People's Republic of China (PRC)
Launch site: Taiyaun Space Center, China (TSC)
Your satellite tracking list
Your tracking list is empty




NASA's NSSDC Master Catalog

Two Line Element Set (TLE):
1 51102U 22004A   24150.55910133  .00002951  00000-0  21110-3 0  9991
2 51102  98.5317 186.6888 0631625 209.9032 146.4623 14.13497921121233
Source of the keplerian elements: AFSPC